sat.trackr.live / text

‹ back to catalog

STARLINK-5426

NORAD 54802 · 2022-175AW

PAYLOAD ACTIVE UNKNOWN

§ Identity

Operator
Country
US
Launch date
2022-12-17
Launch site
AFETR
Launch vehicle
Mass (kg)
RCS (m²)

Purposes: comms

External: N2YO · Heavens-Above · Gunter

§ Orbital elements

Epoch: 2026-05-24T21:53:01.186656Z

Period
95.49 min
Inclination
53.2189°
Eccentricity
0.0001284
Mean motion
15.07990356 rev/d
Perigee alt
541.5 km
Apogee alt
543.2 km
Semi-major
6,920.5 km
B*
1.6161e-4
RAAN
6.4221°
Arg perigee
65.2954°
Mean anomaly
294.8172°
Rev number
19,220

§ Raw data

STARLINK-54261 54802U 22175AW  26144.91181929  .00002228  00000+0  16161-3 0  99942 54802  53.2189   6.4221 0001284  65.2954 294.8172 15.07990356192202

JSON: /api/v1/satellites/54802 · /tle

For live sub-satellite position, see the globe view (requires WebGL).

§ Visibility from observer

Set your observer location to see the next 7 days of passes ≥ 10°. The values pass through the URL so the page stays shareable.

No JS? Fill the form by hand. The geolocation button needs JavaScript.